Total_Precipitation_Accumulation
1.33 1.50 1.79 2.22 2.67 3.16 3.27 3.29 3.40 3.60 3.75 3.87 3.89 3.77 3.45 3.29 3.14 2.92 2.79 2.71 2.60 2.61 2.69 2.41 2.16 2.09 2.03 1.99 1.93 1.90 1.82 1.63 1.59 1.57 1.30 1.00 0.84 0.79 0.70 0.65 0.62 0.55 0.51
1.31 1.46 1.69 1.98 2.24 2.71 3.06 3.12 3.20 3.29 3.38 3.43 3.65 3.77 3.65 3.38 3.28 3.20 3.02 2.84 2.75 2.69 2.72 2.77 2.57 2.28 2.21 2.19 2.19 2.10 1.95 1.88 1.84 1.79 1.71 1.50 1.27 0.97 0.79 0.74 0.69 0.65 0.62
1.26 1.40 1.55 1.87 2.07 2.42 2.84 3.00 3.12 3.25 3.22 3.38 3.83 4.07 4.09 3.79 3.49 3.29 3.21 3.05 2.88 2.82 2.74 2.69 2.72 2.60 2.43 2.32 2.32 2.39 2.36 2.21 2.10 2.00 2.06 1.81 1.49 1.19 0.97 0.87 0.83 0.81 0.79
1.14 1.26 1.35 1.68 1.93 2.15 2.49 2.72 3.01 3.26 3.38 3.46 3.68 3.75 3.59 3.41 3.11 3.02 3.03 3.08 3.07 2.89 2.81 2.79 2.76 2.73 2.63 2.47 2.43 2.50 2.55 2.58 2.48 2.32 2.13 1.91 1.60 1.48 1.24 1.00 0.97 1.02 1.01
1.09 1.27 1.36 1.49 1.65 1.96 2.25 2.43 2.62 2.91 3.18 3.33 3.49 3.63 3.47 3.22 3.11 3.10 3.09 3.05 3.09 3.01 2.91 2.84 2.83 2.82 2.75 2.67 2.61 2.60 2.62 2.62 2.60 2.53 2.36 2.18 1.86 1.59 1.50 1.28 1.12 1.17 1.13
1.09 1.22 1.29 1.40 1.50 1.74 2.08 2.25 2.40 2.57 2.86 3.07 3.26 3.46 3.36 3.12 2.88 2.88 2.94 2.90 2.89 2.84 2.79 2.82 2.77 2.74 2.71 2.62 2.58 2.58 2.58 2.60 2.52 2.42 2.30 2.23 2.07 1.82 1.73 1.56 1.34 1.33 1.30
1.02 1.13 1.23 1.40 1.50 1.65 1.81 1.94 2.02 2.15 2.40 2.67 2.84 3.04 3.14 3.11 2.90 2.65 2.67 2.67 2.61 2.54 2.48 2.55 2.61 2.61 2.58 2.58 2.56 2.53 2.44 2.46 2.49 2.38 2.24 2.10 1.88 1.74 1.81 1.82 1.63 1.46 1.32
0.99 1.04 1.12 1.29 1.45 1.59 1.62 1.65 1.73 1.85 1.96 2.10 2.28 2.45 2.53 2.72 2.78 2.65 2.48 2.46 2.39 2.32 2.32 2.37 2.45 2.53 2.57 2.53 2.56 2.52 2.40 2.35 2.32 2.30 2.23 2.16 1.98 1.80 1.74 1.78 1.88 1.84 1.58
0.92 0.99 1.11 1.22 1.32 1.44 1.50 1.52 1.59 1.66 1.69 1.81 1.93 2.14 2.16 2.19 2.31 2.36 2.37 2.35 2.25 2.18 2.23 2.35 2.35 2.34 2.40 2.40 2.39 2.39 2.26 2.17 2.13 2.08 2.10 2.09 2.00 1.93 1.83 1.80 1.93 2.21 2.17
0.91 1.02 1.15 1.25 1.30 1.40 1.46 1.43 1.48 1.54 1.60 1.65 1.77 1.91 1.98 2.04 2.07 2.07 2.07 2.12 2.09 2.00 2.01 2.11 2.22 2.21 2.20 2.27 2.33 2.22 2.08 2.02 1.90 1.82 1.86 1.90 1.90 1.95 1.96 1.95 1.97 2.11 2.31
0.91 1.05 1.17 1.29 1.34 1.36 1.41 1.42 1.38 1.41 1.48 1.53 1.58 1.67 1.74 1.82 1.93 1.92 1.87 1.86 1.89 1.85 1.81 1.88 1.94 1.95 1.93 1.96 2.06 2.07 2.01 1.97 1.89 1.79 1.70 1.66 1.71 1.84 1.91 2.00 2.03 2.07 2.18
0.87 0.99 1.08 1.11 1.19 1.27 1.38 1.45 1.38 1.38 1.35 1.43 1.51 1.53 1.58 1.63 1.73 1.76 1.77 1.73 1.74 1.75 1.72 1.75 1.81 1.81 1.79 1.78 1.80 1.80 1.81 1.86 1.86 1.83 1.79 1.70 1.68 1.81 1.89 2.00 2.03 1.98 1.93
0.83 0.89 0.98 1.00 1.03 1.13 1.29 1.44 1.41 1.39 1.32 1.30 1.42 1.52 1.51 1.46 1.54 1.60 1.57 1.58 1.60 1.69 1.71 1.66 1.69 1.70 1.72 1.75 1.75 1.73 1.72 1.70 1.72 1.79 1.85 1.80 1.81 1.84 1.82 1.82 1.81 1.76 1.68
0.84 0.87 0.92 0.92 0.94 1.01 1.08 1.23 1.27 1.28 1.31 1.34 1.34 1.40 1.45 1.42 1.39 1.45 1.44 1.44 1.48 1.54 1.62 1.59 1.55 1.59 1.64 1.70 1.73 1.79 1.84 1.81 1.77 1.77 1.82 1.82 1.83 1.78 1.76 1.75 1.69 1.64 1.63
0.75 0.81 0.87 0.87 0.86 0.92 0.95 1.03 1.14 1.22 1.29 1.35 1.36 1.34 1.37 1.39 1.40 1.41 1.43 1.41 1.45 1.47 1.51 1.55 1.52 1.54 1.62 1.72 1.76 1.76 1.83 1.93 1.92 1.84 1.78 1.73 1.82 1.81 1.75 1.72 1.70 1.73 1.80
0.73 0.77 0.80 0.81 0.81 0.88 0.94 0.97 1.03 1.18 1.21 1.28 1.35 1.31 1.26 1.29 1.40 1.49 1.50 1.49 1.48 1.50 1.53 1.59 1.62 1.62 1.65 1.97 2.03 1.93 1.88 1.90 1.88 1.80 1.69 1.62 1.70 1.68 1.72 1.75 1.75 1.83 1.93
0.67 0.71 0.76 0.80 0.84 0.89 0.92 0.95 0.99 1.12 1.19 1.24 1.30 1.31 1.30 1.32 1.36 1.45 1.57 1.63 1.61 1.60 1.67 1.73 1.76 1.79 1.85 1.99 1.89 1.89 1.74 1.71 1.68 1.59 1.50 1.43 1.38 1.44 1.29 1.43 1.58 1.61 1.73
0.62 0.65 0.69 0.74 0.77 0.80 0.86 0.92 0.94 1.00 1.07 1.14 1.24 1.26 1.28 1.39 1.48 1.51 1.56 1.64 1.68 1.72 1.80 1.88 1.89 1.84 1.85 1.84 1.65 1.64 1.52 1.43 1.36 1.31 1.28 1.25 1.20 1.20 1.26 1.30 1.39 1.32 1.26
0.64 0.67 0.69 0.74 0.74 0.74 0.81 0.89 0.95 1.00 1.03 1.09 1.21 1.28 1.29 1.35 1.45 1.59 1.62 1.65 1.69 1.74 1.74 1.75 1.70 1.59 1.53 1.54 1.39 1.33 1.23 1.25 1.20 1.11 1.10 1.13 1.08 1.26 1.47 1.48 1.45 1.27 1.14
0.54 0.63 0.66 0.69 0.71 0.74 0.80 0.91 0.98 1.07 1.17 1.23 1.30 1.38 1.43 1.46 1.45 1.51 1.58 1.57 1.52 1.48 1.37 1.29 1.23 1.16 1.08 1.16 1.20 1.21 1.08 1.08 1.06 1.04 1.03 1.17 1.17 1.36 1.54 1.49 1.50 1.38 1.15
0.49 0.58 0.65 0.72 0.76 0.81 0.88 1.01 1.09 1.22 1.33 1.39 1.39 1.44 1.45 1.47 1.44 1.35 1.27 1.24 1.18 1.11 1.08 1.02 0.94 0.91 0.92 0.94 0.99 1.13 1.15 1.12 1.06 1.02 0.98 1.00 1.23 1.38 1.48 1.48 1.36 1.40 1.42
0.49 0.59 0.68 0.73 0.78 0.86 0.93 1.00 1.11 1.19 1.21 1.29 1.29 1.29 1.18 1.07 1.05 1.05 1.03 1.04 1.04 0.99 0.96 0.97 0.95 0.89 0.89 0.94 0.96 1.06 1.17 1.24 1.19 1.05 0.90 0.94 1.20 1.31 1.38 1.34 1.36 1.52 1.51
0.44 0.50 0.59 0.62 0.63 0.71 0.81 0.92 0.94 0.92 0.93 0.95 0.97 0.99 0.94 0.86 0.86 0.90 0.95 0.98 1.02 1.02 0.98 0.96 0.97 0.94 0.87 0.91 1.03 1.09 1.16 1.23 1.19 1.08 1.06 1.08 1.14 1.14 1.17 1.26 1.31 1.30 1.25
0.43 0.48 0.51 0.53 0.56 0.60 0.69 0.81 0.82 0.79 0.81 0.84 0.84 0.88 0.91 0.88 0.87 0.87 0.92 0.99 1.03 1.05 1.03 1.02 1.00 0.95 0.90 0.90 0.94 1.05 1.16 1.23 1.24 1.26 1.26 1.20 1.14 1.11 1.08 1.13 1.13 1.10 1.15
0.48 0.52 0.56 0.58 0.61 0.61 0.64 0.69 0.74 0.78 0.83 0.82 0.82 0.84 0.89 0.92 0.91 0.92 0.98 1.04 1.05 1.14 1.25 1.20 1.13 1.12 1.06 1.00 1.16 1.24 1.25 1.30 1.38 1.44 1.36 1.26 1.17 1.15 1.12 1.08 1.05 1.09 1.19
0.50 0.52 0.57 0.62 0.66 0.66 0.68 0.71 0.76 0.82 0.90 0.91 0.90 0.92 0.96 0.96 0.98 0.98 1.02 1.12 1.13 1.19 1.25 1.24 1.22 1.15 1.10 1.13 1.23 1.27 1.31 1.40 1.51 1.56 1.41 1.22 1.09 1.03 1.01 1.03 1.04 1.05 1.10